Cloud_Cover
5 2 5 4 0 0 0 0 0 0 0 0 0 1 4 6 8 31 92 96 100 77 74 50 44 99 100 100 100 91 42 85 100 100 100 100 100 100 100 100 100 100 100 100 100 100 100 98 81 51 43 6 5 5
2 4 5 5 2 0 0 0 0 0 0 0 0 0 13 7 31 20 100 100 100 100 92 23 82 100 100 100 100 100 100 100 100 100 100 100 100 100 100 100 100 100 100 100 100 100 100 97 100 100 95 34 5 5
5 5 5 5 5 0 0 0 0 0 0 0 0 0 1 0 5 28 65 98 100 99 45 85 98 100 100 100 100 100 100 100 100 100 100 100 100 100 100 100 100 100 100 100 100 100 100 100 50 5 5 5 5 5
10 53 10 5 5 4 5 1 0 0 0 0 0 0 0 3 4 6 98 77 95 62 94 89 75 97 95 100 100 100 100 100 100 100 100 100 100 98 100 100 100 100 100 100 100 100 100 100 88 31 5 5 5 9
12 62 8 5 5 5 5 5 0 0 0 3 0 0 0 7 2 5 99 93 62 68 79 47 15 58 39 100 100 100 100 100 100 100 100 100 100 68 90 87 100 100 100 100 100 100 93 20 5 5 5 5 5 28
5 50 42 5 10 19 5 5 5 5 1 0 4 1 0 3 4 69 70 54 21 97 99 97 12 21 95 9 97 100 88 100 98 100 100 100 100 99 100 100 70 5 6 5 9 6 5 5 5 15 22 62 82 87
5 5 15 56 6 18 5 5 5 5 4 4 5 0 0 4 12 62 46 39 5 79 89 87 97 31 39 10 28 78 95 100 98 84 89 93 100 81 99 49 5 5 4 5 5 5 8 64 5 75 83 82 91 90
5 5 5 12 9 18 5 6 5 5 4 3 4 0 0 4 18 44 36 9 74 29 56 97 77 35 5 85 91 8 77 65 84 95 85 96 95 100 24 22 3 0 3 5 5 5 5 5 52 83 96 100 82 84
39 84 28 5 5 5 5 5 5 5 5 5 5 5 36 63 21 54 2 5 49 43 85 97 94 52 4 29 5 21 8 99 40 95 100 49 77 96 84 79 89 5 5 5 5 93 18 45 61 87 100 100 100 100
62 5 5 27 26 28 15 12 6 40 5 5 5 9 96 30 5 5 51 79 49 97 82 99 50 96 23 10 75 34 5 73 95 91 10 72 67 5 88 6 56 23 5 5 100 99 99 84 84 100 100 100 100 100
100 100 100 100 100 100 100 8 73 5 5 5 5 5 15 5 23 60 65 70 46 93 71 39 24 37 34 34 47 8 63 9 28 70 70 94 97 40 50 28 37 24 5 40 100 85 90 87 86 98 100 100 78 100
54 97 100 100 100 100 100 8 60 56 35 5 30 44 43 42 44 53 31 11 23 93 47 77 35 5 5 5 83 33 30 5 24 19 89 77 44 9 95 63 76 51 79 100 92 12 27 61 82 86 100 100 100 100
100 97 18 32 14 100 23 18 66 97 65 28 86 95 75 39 66 6 15 5 54 5 5 5 66 5 7 11 54 38 77 92 38 93 97 10 28 57 83 95 56 13 83 92 5 5 5 27 74 67 76 100 100 100
100 100 100 54 18 100 100 10 28 65 100 100 99 64 59 9 5 5 14 21 41 9 5 5 9 5 26 23 46 77 28 63 100 100 74 37 52 100 100 94 75 47 5 17 6 5 22 65 96 100 100 100 100 100
100 100 100 100 100 100 100 95 20 10 33 67 90 94 100 62 18 5 5 14 45 52 41 27 41 18 86 62 47 65 93 92 100 90 39 95 100 79 88 88 67 47 40 41 8 56 78 77 96 76 100 100 100 100
100 100 100 100 100 100 100 100 100 33 58 63 89 68 37 71 27 5 5 5 5 13 77 69 78 92 72 72 90 60 100 65 37 83 100 100 100 92 99 95 89 81 74 79 80 46 26 19 10 81 100 100 100 100
100 100 100 100 100 100 100 100 100 100 92 98 90 57 49 66 46 6 30 5 5 34 48 58 98 91 69 92 76 21 12 33 28 98 84 71 93 100 100 100 100 100 88 77 85 72 64 78 98 81 100 100 100 100
100 100 100 100 100 100 100 100 100 100 100 100 100 100 98 85 73 93 89 78 69 97 90 98 100 98 100 59 43 17 5 36 62 88 73 71 59 68 62 87 94 96 100 100 94 71 80 90 100 100 87 90 84 90
100 100 100 100 100 100 100 100 100 100 100 100 100 100 96 100 100 75 100 100 100 100 99 100 100 100 100 99 52 48 65 34 25 68 68 87 83 64 50 27 5 5 5 5 36 92 100 100 100 100 100 100 100 93
100 100 100 100 100 100 100 100 100 100 100 100 100 100 98 100 100 100 100 100 100 100 97 100 100 100 100 100 100 98 97 98 66 71 79 99 91 91 76 40 5 5 5 5 31 65 100 100 100 100 100 100 96 97
100 100 100 100 100 100 100 100 100 100 100 100 100 100 84 35 99 100 100 100 100 100 100 88 99 100 100 100 100 100 100 100 100 68 70 51 24 9 24 62 92 54 49 5 68 76 100 100 100 100 100 100 100 100
100 100 100 100 100 100 100 100 100 100 100 100 100 100 100 76 88 71 98 100 100 100 80 100 97 100 100 100 100 100 100 100 100 73 66 66 84 54 50 78 63 52 71 89 100 100 100 98 93 100 100 100 100 100
100 100 100 100 100 100 100 100 100 100 100 100 100 100 100 65 87 30 100 100 100 97 100 98 100 100 100 100 100 100 100 100 100 83 52 29 36 82 78 96 100 100 100 100 100 100 100 100 100 100 100 100 100 100
100 100 100 100 100 100 100 100 100 100 100 100 100 98 72 64 73 99 100 100 96 99 100 100 100 100 94 100 100 100 100 100 100 90 47 38 31 64 93 99 100 100 100 100 100 100 100 100 100 100 100 100 100 100
100 100 99 95 100 100 100 100 100 100 100 100 100 88 92 59 81 75 100 100 100 100 100 100 100 100 100 100 100 100 100 100 100 92 67 54 52 72 98 100 100 100 100 100 100 100 100 100 100 100 100 100 100 100
100 92 89 100 100 100 100 100 100 100 95 100 100 91 5 38 79 89 100 100 100 100 100 100 92 99 100 100 100 100 100 100 100 64 59 59 52 96 99 100 100 100 99 100 100 100 100 100 100 100 100 100 100 98
100 99 100 100 100 100 100 100 100 99 100 98 98 80 74 97 98 100 100 100 100 100 100 100 100 100 100 100 100 100 100 100 100 87 69 58 90 96 100 100 94 99 100 98 98 100 100 100 100 100 100 100 100 100
88 100 100 100 100 100 100 100 100 92 88 85 69 81 100 99 100 100 100 100 100 100 100 100 100 100 100 100 100 98 94 100 100 98 98 94 96 92 86 97 65 12 61 48 85 100 100 100 100 100 100 100 100 100
100 100 100 100 100 100 100 98 98 100 95 75 92 100 85 100 100 100 100 100 100 100 100 100 100 100 100 100 100 96 86 100 100 100 68 93 100 99 100 98 95 45 74 97 27 44 94 97 100 100 100 100 100 100
100 100 100 100 100 95 91 100 87 98 100 98 57 49 90 100 100 100 100 100 100 100 100 100 100 100 100 97 97 97 99 100 100 100 75 63 95 84 100 100 76 43 92 99 100 86 97 96 99 100 100 99 88 67
100 100 100 100 100 100 100 98 100 100 100 94 54 52 88 99 100 100 100 100 100 100 100 100 100 100 100 100 100 100 100 100 100 100 85 54 86 98 100 54 30 92 100 99 81 86 99 100 98 86 11 5 5 5
100 100 100 96 79 82 100 100 100 100 100 100 100 96 99 100 100 100 100 100 100 100 100 100 100 100 100 100 100 100 100 100 100 100 73 59 100 100 49 25 79 100 94 52 19 5 5 5 5 5 5 5 5 5
100 100 100 100 100 100 100 100 99 100 94 100 100 100 100 100 100 100 100 100 100 100 100 100 100 100 100 100 100 100 100 100 100 100 94 79 59 59 65 79 98 85 6 9 5 5 5 5 5 5 5 5 5 7